Zurück zum Katalog

STARLINK-32733

AktivKommunikationVLEO
NORAD 62477·PAYLOAD·🇺🇸 United States

Gestartet Dec 31, 2024 von Cape Canaveral Space Force Station

Loading…

Nächste Überflüge (nächste 24 Stunden)

TLE

AktuellSource: CelesTrak SupGP

Epoche: Sep 14, 2026, 22:31 UTC

1 62477C 24254R   26257.93868056  .00015263  00000+0  55280-3 0  2576
2 62477  43.0045  27.2089 0001938 271.8723 336.4091 15.27571748    17

Verfolge STARLINK-32733 in Echtzeit mit AllMySat

Download on the App Store